DLH156 WSSS-VDPP

Flight info

Callsign DLH156
Flight time 1h 35m
Altitude 39000
Route VMR9B VMR L642 ENREP M753 IPRIX/K0889F390 M753 BITOD M755 KISAN NARET3A
Aircraft A346/H-SDE2E3FGHIJ3J4J5M1RWXY/LB1D1

Departure

Time 2026-04-15 06:59
Airport Singapore Changi Airport (WSSS)

Arrival

Time 2026-04-15 08:35
Airport Phnom Penh International Airport (VDPP)
Time Latitude Longitude Altitude Speed Heading
2026-04-15 06:42 1.35566 103.99335 39 ft 0 kts 347°
2026-04-15 06:45 1.35558 103.99337 38 ft 3 kts 344°
2026-04-15 06:45 1.35540 103.99343 37 ft 2 kts 344°
2026-04-15 06:46 1.35522 103.99346 37 ft 3 kts 357°
2026-04-15 06:46 1.35504 103.99345 35 ft 3 kts 17°
2026-04-15 06:46 1.35489 103.99338 36 ft 3 kts 37°
2026-04-15 06:46 1.35475 103.99325 36 ft 3 kts 50°
2026-04-15 06:47 1.35462 103.99309 37 ft 3 kts 53°
2026-04-15 06:47 1.35456 103.99300 34 ft 1 kts 53°
2026-04-15 06:47 1.35455 103.99299 36 ft 0 kts 53°
2026-04-15 06:50 1.35455 103.99300 36 ft 0 kts 53°
2026-04-15 06:53 1.35457 103.99302 34 ft 1 kts 53°
2026-04-15 06:53 1.35468 103.99316 34 ft 4 kts 53°
2026-04-15 06:53 1.35489 103.99344 38 ft 6 kts 53°
2026-04-15 06:53 1.35521 103.99386 39 ft 9 kts 53°
2026-04-15 06:54 1.35568 103.99439 39 ft 11 kts 32°
2026-04-15 06:54 1.35650 103.99471 39 ft 14 kts 22°
2026-04-15 06:54 1.35754 103.99514 39 ft 18 kts 22°
2026-04-15 06:54 1.35867 103.99561 39 ft 17 kts 22°
2026-04-15 06:55 1.35989 103.99613 37 ft 21 kts 22°
2026-04-15 06:55 1.36131 103.99672 39 ft 23 kts 23°
2026-04-15 06:55 1.36224 103.99711 39 ft 3 kts 23°
2026-04-15 06:55 1.36238 103.99718 39 ft 4 kts 31°
2026-04-15 06:56 1.36253 103.99749 39 ft 6 kts 90°
2026-04-15 06:56 1.36251 103.99756 39 ft 0 kts 118°
2026-04-15 06:56 1.36243 103.99772 39 ft 5 kts 114°
2026-04-15 06:56 1.36222 103.99821 39 ft 9 kts 113°
2026-04-15 06:57 1.36182 103.99881 39 ft 11 kts 156°
2026-04-15 06:57 1.36145 103.99880 39 ft 0 kts 204°
2026-04-15 06:58 1.36144 103.99879 39 ft 1 kts 204°
2026-04-15 06:58 1.35978 103.99806 39 ft 65 kts 203°
2026-04-15 06:58 1.35324 103.99530 39 ft 137 kts 203°
2026-04-15 06:59 1.34260 103.99081 164 ft 184 kts 201°
2026-04-15 06:59 1.33072 103.98590 983 ft 184 kts 201°
2026-04-15 06:59 1.31901 103.98108 1908 ft 182 kts 204°
2026-04-15 06:59 1.30692 103.97592 2413 ft 197 kts 204°
2026-04-15 07:00 1.29389 103.97034 2888 ft 214 kts 204°
2026-04-15 07:00 1.27953 103.96421 3336 ft 235 kts 204°
2026-04-15 07:00 1.26398 103.95761 3997 ft 245 kts 204°
2026-04-15 07:00 1.24820 103.95109 4953 ft 244 kts 199°
2026-04-15 07:01 1.23140 103.94941 5871 ft 247 kts 171°
2026-04-15 07:01 1.21565 103.95623 6679 ft 252 kts 143°
2026-04-15 07:01 1.20226 103.96774 7493 ft 256 kts 140°
2026-04-15 07:01 1.18905 103.97957 8268 ft 259 kts 140°
2026-04-15 07:02 1.17530 103.99193 8881 ft 274 kts 136°
2026-04-15 07:02 1.16451 104.00825 9388 ft 293 kts 110°
2026-04-15 07:02 1.16222 104.02867 10107 ft 301 kts 83°
2026-04-15 07:02 1.16945 104.04848 10890 ft 306 kts 57°
2026-04-15 07:03 1.18232 104.06524 11733 ft 308 kts 51°
2026-04-15 07:03 1.19664 104.08149 12519 ft 312 kts 44°
2026-04-15 07:03 1.21377 104.09511 13318 ft 316 kts 32°
2026-04-15 07:03 1.23285 104.10628 14104 ft 319 kts 28°
2026-04-15 07:04 1.25247 104.11682 14817 ft 322 kts 24°
2026-04-15 07:04 1.27393 104.12237 15474 ft 325 kts
2026-04-15 07:04 1.29637 104.11925 16074 ft 332 kts 340°
2026-04-15 07:04 1.31668 104.10742 16406 ft 347 kts 320°
2026-04-15 07:05 1.33538 104.09120 16732 ft 364 kts 318°
2026-04-15 07:05 1.35488 104.07407 17025 ft 380 kts 319°
2026-04-15 07:05 1.37537 104.05635 17275 ft 396 kts 319°
2026-04-15 07:05 1.39689 104.03881 17547 ft 412 kts 324°
2026-04-15 07:06 1.42160 104.02342 17893 ft 425 kts 332°
2026-04-15 07:06 1.44888 104.01140 18414 ft 430 kts 340°
2026-04-15 07:06 1.47743 104.00177 19003 ft 433 kts 342°
2026-04-15 07:06 1.50608 103.99261 19549 ft 436 kts 343°
2026-04-15 07:07 1.53533 103.98332 20105 ft 440 kts 342°
2026-04-15 07:07 1.56464 103.97397 20671 ft 443 kts 342°
2026-04-15 07:07 1.59409 103.96452 21206 ft 447 kts 342°
2026-04-15 07:07 1.62374 103.95494 21750 ft 450 kts 342°
2026-04-15 07:08 1.65370 103.94524 22273 ft 453 kts 342°
2026-04-15 07:08 1.68343 103.93562 22808 ft 456 kts 342°
2026-04-15 07:08 1.71381 103.92587 23323 ft 460 kts 343°
2026-04-15 07:08 1.74491 103.91771 23767 ft 462 kts 348°
2026-04-15 07:09 1.77666 103.91197 24184 ft 465 kts 352°
2026-04-15 07:09 1.80896 103.90864 24580 ft 468 kts 356°
2026-04-15 07:09 1.84151 103.90642 24989 ft 471 kts 357°
2026-04-15 07:09 1.87438 103.90442 25392 ft 474 kts 357°
2026-04-15 07:10 1.90749 103.90241 25804 ft 477 kts 357°
2026-04-15 07:10 1.94068 103.90037 26208 ft 479 kts 357°
2026-04-15 07:10 1.97403 103.89829 26607 ft 482 kts 357°
2026-04-15 07:10 2.00764 103.89617 27002 ft 485 kts 357°
2026-04-15 07:11 2.04143 103.89403 27395 ft 488 kts 357°
2026-04-15 07:11 2.07502 103.89189 27776 ft 491 kts 357°
2026-04-15 07:11 2.10915 103.88971 28163 ft 494 kts 357°
2026-04-15 07:11 2.14349 103.88751 28648 ft 493 kts 357°
2026-04-15 07:12 2.17774 103.88614 29237 ft 491 kts
2026-04-15 07:12 2.21165 103.88907 29825 ft 488 kts
2026-04-15 07:12 2.24473 103.89615 30299 ft 485 kts 16°
2026-04-15 07:12 2.27673 103.90703 30708 ft 485 kts 23°
2026-04-15 07:13 2.30726 103.92153 31117 ft 485 kts 30°
2026-04-15 07:13 2.33590 103.93945 31544 ft 484 kts 36°
2026-04-15 07:13 2.36257 103.95989 32011 ft 483 kts 39°
2026-04-15 07:13 2.38877 103.98090 32475 ft 482 kts 39°
2026-04-15 07:14 2.41464 104.00172 32891 ft 482 kts 39°
2026-04-15 07:14 2.44085 104.02275 33286 ft 482 kts 39°
2026-04-15 07:14 2.46710 104.04376 33673 ft 483 kts 39°
2026-04-15 07:14 2.49335 104.06475 34069 ft 483 kts 39°
2026-04-15 07:15 2.51968 104.08574 34439 ft 483 kts 39°
2026-04-15 07:15 2.54593 104.10667 34851 ft 481 kts 39°
2026-04-15 07:15 2.57182 104.12731 35625 ft 466 kts 39°
2026-04-15 07:15 2.59695 104.14734 36288 ft 458 kts 39°
2026-04-15 07:16 2.62183 104.16719 36701 ft 458 kts 39°
2026-04-15 07:16 2.64658 104.18695 36830 ft 465 kts 39°
2026-04-15 07:16 2.69800 104.22803 36840 ft 476 kts 39°
2026-04-15 07:17 2.74980 104.26937 36841 ft 476 kts 39°
2026-04-15 07:17 2.80158 104.31069 36840 ft 475 kts 39°
2026-04-15 07:18 2.85332 104.35199 36834 ft 474 kts 40°
2026-04-15 07:18 2.89576 104.38597 36838 ft 465 kts 40°
2026-04-15 07:19 2.94599 104.42625 36839 ft 464 kts 40°
2026-04-15 07:19 2.99945 104.46221 36833 ft 465 kts 25°
2026-04-15 07:20 3.06148 104.48031 36840 ft 467 kts
2026-04-15 07:20 3.12584 104.48979 36839 ft 467 kts
2026-04-15 07:21 3.19015 104.49922 36837 ft 467 kts
2026-04-15 07:21 3.25444 104.50900 36836 ft 467 kts
2026-04-15 07:22 3.31877 104.51869 36837 ft 467 kts
2026-04-15 07:22 3.38262 104.52828 36836 ft 466 kts
2026-04-15 07:23 3.44676 104.53789 36835 ft 466 kts
2026-04-15 07:23 3.51082 104.54749 36835 ft 466 kts
2026-04-15 07:24 3.57504 104.55713 36833 ft 466 kts
2026-04-15 07:24 3.63920 104.56676 36835 ft 466 kts
2026-04-15 07:25 3.70295 104.57633 36840 ft 466 kts
2026-04-15 07:25 3.76708 104.58597 36835 ft 465 kts
2026-04-15 07:26 3.83121 104.59560 36831 ft 465 kts
2026-04-15 07:26 3.89525 104.60523 36832 ft 465 kts
2026-04-15 07:27 3.95899 104.61483 36830 ft 465 kts
2026-04-15 07:27 4.02305 104.62447 36833 ft 465 kts
2026-04-15 07:28 4.08712 104.63411 36832 ft 465 kts
2026-04-15 07:28 4.15120 104.64376 36831 ft 465 kts
2026-04-15 07:29 4.21488 104.65335 36831 ft 465 kts
2026-04-15 07:29 4.27898 104.66300 36830 ft 465 kts
2026-04-15 07:30 4.34311 104.67266 36828 ft 465 kts
2026-04-15 07:30 4.40722 104.68231 36827 ft 465 kts
2026-04-15 07:31 4.47141 104.69200 36831 ft 467 kts
2026-04-15 07:31 4.53589 104.69360 36824 ft 467 kts 352°
2026-04-15 07:32 4.59926 104.67648 36835 ft 476 kts 339°
2026-04-15 07:32 4.66138 104.65307 36829 ft 477 kts 339°
2026-04-15 07:33 4.72333 104.62990 36826 ft 477 kts 339°
2026-04-15 07:33 4.78582 104.60688 36829 ft 477 kts 339°
2026-04-15 07:34 4.84787 104.58211 36830 ft 484 kts 334°
2026-04-15 07:34 4.90662 104.54852 36831 ft 486 kts 327°
2026-04-15 07:35 4.96332 104.51146 36826 ft 486 kts 326°
2026-04-15 07:35 5.01965 104.47451 36824 ft 486 kts 326°
2026-04-15 07:36 5.07639 104.43742 36823 ft 486 kts 326°
2026-04-15 07:36 5.13321 104.40034 36823 ft 486 kts 326°
2026-04-15 07:37 5.19009 104.36326 36827 ft 488 kts 326°
2026-04-15 07:37 5.24724 104.32598 36821 ft 490 kts 326°
2026-04-15 07:38 5.30448 104.28860 36821 ft 490 kts 326°
2026-04-15 07:38 5.36141 104.25143 36819 ft 490 kts 326°
2026-04-15 07:39 5.42213 104.22030 36814 ft 492 kts 343°
2026-04-15 07:39 5.45572 104.21381 36819 ft 494 kts 354°
2026-04-15 07:39 5.49009 104.21154 36825 ft 495 kts 356°
2026-04-15 07:40 5.55914 104.20831 36820 ft 495 kts 357°
2026-04-15 07:40 5.62748 104.20503 36818 ft 495 kts 356°
2026-04-15 07:41 5.69640 104.20149 36822 ft 495 kts 356°
2026-04-15 07:41 5.76517 104.19787 36823 ft 495 kts 356°
2026-04-15 07:42 5.83408 104.19421 36820 ft 495 kts 356°
2026-04-15 07:42 5.90293 104.19054 36824 ft 495 kts 356°
2026-04-15 07:43 5.97132 104.18690 36821 ft 494 kts 356°
2026-04-15 07:43 6.04025 104.18323 36825 ft 494 kts 356°
2026-04-15 07:44 6.10892 104.17957 36823 ft 494 kts 356°
2026-04-15 07:44 6.17761 104.17590 36830 ft 494 kts 356°
2026-04-15 07:45 6.24637 104.17224 36827 ft 494 kts 356°
2026-04-15 07:45 6.31504 104.16858 36826 ft 494 kts 356°
2026-04-15 07:46 6.38337 104.16491 36827 ft 494 kts 356°
2026-04-15 07:46 6.45214 104.16120 36824 ft 494 kts 356°
2026-04-15 07:47 6.52089 104.15752 36831 ft 494 kts 356°
2026-04-15 07:47 6.58963 104.15384 36832 ft 494 kts 356°
2026-04-15 07:48 6.65836 104.15017 36829 ft 494 kts 356°
2026-04-15 07:48 6.72669 104.14652 36830 ft 494 kts 356°
2026-04-15 07:49 6.79530 104.14284 36832 ft 494 kts 356°
2026-04-15 07:49 6.86401 104.13917 36829 ft 494 kts 356°
2026-04-15 07:50 6.93216 104.13552 36830 ft 494 kts 356°
2026-04-15 07:50 7.00107 104.13183 36825 ft 494 kts 356°
2026-04-15 07:51 7.06969 104.12824 36825 ft 493 kts 356°
2026-04-15 07:51 7.13781 104.12469 36825 ft 493 kts 356°
2026-04-15 07:52 7.20641 104.12138 36829 ft 493 kts 358°
2026-04-15 07:52 7.27506 104.12346 36832 ft 494 kts
2026-04-15 07:53 7.34319 104.13269 36834 ft 494 kts
2026-04-15 07:53 7.41108 104.14412 36828 ft 494 kts
2026-04-15 07:54 7.47899 104.15558 36823 ft 494 kts
2026-04-15 07:54 7.54685 104.16695 36828 ft 494 kts
2026-04-15 07:55 7.61438 104.17824 36830 ft 494 kts
2026-04-15 07:56 7.71626 104.19527 36824 ft 494 kts
2026-04-15 07:56 7.78420 104.20662 36828 ft 494 kts
2026-04-15 07:57 7.85202 104.21796 36823 ft 494 kts
2026-04-15 07:57 7.91987 104.22932 36827 ft 493 kts
2026-04-15 07:58 7.98709 104.24056 36820 ft 492 kts
2026-04-15 07:58 8.05505 104.25192 36827 ft 492 kts
2026-04-15 07:59 8.12266 104.26325 36824 ft 492 kts
2026-04-15 07:59 8.19016 104.27455 36828 ft 492 kts
2026-04-15 08:00 8.25744 104.28582 36827 ft 492 kts
2026-04-15 08:00 8.32506 104.29715 36833 ft 492 kts
2026-04-15 08:01 8.39271 104.30849 36829 ft 492 kts
2026-04-15 08:01 8.46035 104.31983 36828 ft 492 kts
2026-04-15 08:02 8.52794 104.33117 36817 ft 491 kts
2026-04-15 08:02 8.59500 104.34242 36823 ft 491 kts
2026-04-15 08:03 8.66251 104.35376 36821 ft 491 kts
2026-04-15 08:03 8.72990 104.36507 36826 ft 491 kts
2026-04-15 08:04 8.79759 104.37644 36818 ft 491 kts
2026-04-15 08:04 8.85354 104.38587 36819 ft 489 kts
2026-04-15 08:05 8.93171 104.39900 36818 ft 489 kts
2026-04-15 08:05 8.99876 104.41026 36814 ft 489 kts
2026-04-15 08:06 9.05513 104.41974 36812 ft 489 kts
2026-04-15 08:06 9.12190 104.43098 36814 ft 488 kts
2026-04-15 08:07 9.18900 104.44228 36757 ft 489 kts
2026-04-15 08:07 9.22256 104.44794 36493 ft 487 kts
2026-04-15 08:07 9.25589 104.45356 36161 ft 484 kts
2026-04-15 08:07 9.28917 104.45917 35682 ft 483 kts
2026-04-15 08:08 9.32195 104.46469 35084 ft 484 kts
2026-04-15 08:08 9.35528 104.47030 34458 ft 485 kts
2026-04-15 08:08 9.38868 104.47593 33818 ft 487 kts
2026-04-15 08:08 9.42216 104.48157 33085 ft 488 kts
2026-04-15 08:09 9.45581 104.48724 32385 ft 489 kts
2026-04-15 08:09 9.48937 104.49289 31703 ft 489 kts
2026-04-15 08:09 9.52302 104.49857 31011 ft 490 kts
2026-04-15 08:09 9.55644 104.50420 30304 ft 492 kts
2026-04-15 08:10 9.59032 104.50990 29532 ft 493 kts
2026-04-15 08:10 9.62434 104.51565 28721 ft 494 kts
2026-04-15 08:10 9.65831 104.52138 27931 ft 495 kts
2026-04-15 08:10 9.69223 104.52709 27325 ft 491 kts
2026-04-15 08:11 9.72574 104.53275 26781 ft 487 kts
2026-04-15 08:11 9.75876 104.53832 26268 ft 482 kts
2026-04-15 08:11 9.79173 104.54389 25695 ft 479 kts
2026-04-15 08:11 9.82455 104.54943 25164 ft 475 kts
2026-04-15 08:12 9.85719 104.55495 24672 ft 471 kts 10°
2026-04-15 08:12 9.88906 104.56034 24193 ft 467 kts 10°
2026-04-15 08:12 9.92101 104.56574 23717 ft 463 kts 10°
2026-04-15 08:12 9.95277 104.57113 23211 ft 460 kts 10°
2026-04-15 08:13 9.98423 104.57644 22682 ft 455 kts 11°
2026-04-15 08:13 10.01541 104.58174 22193 ft 450 kts 11°
2026-04-15 08:13 10.04596 104.58964 21878 ft 453 kts 19°
2026-04-15 08:13 10.07552 104.60080 21649 ft 453 kts 22°
2026-04-15 08:14 10.10442 104.61253 21399 ft 451 kts 22°
2026-04-15 08:14 10.13375 104.62435 21148 ft 449 kts 22°
2026-04-15 08:14 10.16290 104.63587 20902 ft 447 kts 22°
2026-04-15 08:14 10.19155 104.64701 20665 ft 445 kts 21°
2026-04-15 08:15 10.22044 104.65808 20422 ft 443 kts 21°
2026-04-15 08:15 10.24916 104.66903 20173 ft 440 kts 21°
2026-04-15 08:15 10.27795 104.67996 19942 ft 439 kts 21°
2026-04-15 08:15 10.30654 104.69078 19707 ft 437 kts 21°
2026-04-15 08:16 10.33498 104.70154 19466 ft 435 kts 21°
2026-04-15 08:16 10.36333 104.71223 19244 ft 433 kts 21°
2026-04-15 08:16 10.39151 104.72288 19023 ft 431 kts 21°
2026-04-15 08:16 10.41959 104.73350 18793 ft 429 kts 21°
2026-04-15 08:17 10.44722 104.74393 18561 ft 427 kts 21°
2026-04-15 08:17 10.47515 104.75449 18342 ft 426 kts 21°
2026-04-15 08:17 10.50302 104.76503 18116 ft 424 kts 21°
2026-04-15 08:17 10.53060 104.77545 17858 ft 422 kts 21°
2026-04-15 08:18 10.55782 104.78574 17604 ft 421 kts 21°
2026-04-15 08:18 10.58524 104.79610 17349 ft 419 kts 21°
2026-04-15 08:18 10.61256 104.80643 17101 ft 418 kts 21°
2026-04-15 08:18 10.63983 104.81674 16848 ft 417 kts 21°
2026-04-15 08:19 10.66698 104.82700 16596 ft 415 kts 21°
2026-04-15 08:19 10.69403 104.83726 16352 ft 414 kts 21°
2026-04-15 08:19 10.72102 104.84748 16099 ft 412 kts 21°
2026-04-15 08:19 10.74751 104.85750 15848 ft 410 kts 21°
2026-04-15 08:20 10.77429 104.86765 15603 ft 409 kts 21°
2026-04-15 08:20 10.80095 104.87774 15306 ft 407 kts 21°
2026-04-15 08:20 10.82740 104.88776 14922 ft 405 kts 21°
2026-04-15 08:20 10.85379 104.89777 14480 ft 401 kts 21°
2026-04-15 08:21 10.87996 104.90767 14031 ft 398 kts 21°
2026-04-15 08:21 10.90586 104.91749 13565 ft 395 kts 21°
2026-04-15 08:21 10.93113 104.92708 13067 ft 391 kts 21°
2026-04-15 08:21 10.95654 104.93671 12573 ft 386 kts 21°
2026-04-15 08:22 10.98170 104.94625 12109 ft 382 kts 21°
2026-04-15 08:22 11.00651 104.95566 11647 ft 378 kts 21°
2026-04-15 08:22 11.03112 104.96499 11190 ft 375 kts 21°
2026-04-15 08:22 11.05543 104.97422 10741 ft 371 kts 21°
2026-04-15 08:23 11.07995 104.98228 10253 ft 369 kts 12°
2026-04-15 08:23 11.10510 104.98539 9744 ft 369 kts
2026-04-15 08:23 11.13070 104.98711 9185 ft 367 kts
2026-04-15 08:23 11.15630 104.98883 8697 ft 364 kts
2026-04-15 08:24 11.18145 104.99077 8225 ft 361 kts
2026-04-15 08:24 11.20645 104.99292 7765 ft 358 kts
2026-04-15 08:24 11.23117 104.99518 7303 ft 356 kts
2026-04-15 08:24 11.25578 104.99752 6904 ft 352 kts
2026-04-15 08:25 11.27977 104.99982 6733 ft 338 kts
2026-04-15 08:25 11.30245 105.00202 6547 ft 316 kts
2026-04-15 08:25 11.32364 105.00410 6444 ft 294 kts
2026-04-15 08:25 11.34340 105.00605 6376 ft 279 kts
2026-04-15 08:26 11.36248 105.00793 6263 ft 272 kts
2026-04-15 08:26 11.38090 105.00974 6156 ft 267 kts
2026-04-15 08:26 11.39932 105.01157 6069 ft 264 kts
2026-04-15 08:26 11.41758 105.01338 5951 ft 264 kts
2026-04-15 08:27 11.43591 105.01519 5624 ft 266 kts
2026-04-15 08:27 11.45441 105.01701 5305 ft 267 kts
2026-04-15 08:27 11.47288 105.01884 5011 ft 267 kts
2026-04-15 08:27 11.49152 105.02069 4718 ft 268 kts
2026-04-15 08:28 11.50985 105.02249 4430 ft 268 kts
2026-04-15 08:28 11.52848 105.02433 4129 ft 269 kts
2026-04-15 08:28 11.54710 105.02615 3849 ft 270 kts
2026-04-15 08:28 11.56590 105.02800 3574 ft 271 kts
2026-04-15 08:29 11.58464 105.02983 3277 ft 271 kts
2026-04-15 08:29 11.60346 105.03078 2949 ft 270 kts 352°
2026-04-15 08:29 11.62008 105.02348 2718 ft 256 kts 317°
2026-04-15 08:29 11.63245 105.01146 2691 ft 237 kts 313°
2026-04-15 08:30 11.64365 104.99975 2645 ft 224 kts 312°
2026-04-15 08:30 11.65420 104.98882 2555 ft 214 kts 309°
2026-04-15 08:30 11.66079 104.97596 2433 ft 199 kts 274°
2026-04-15 08:30 11.66009 104.96254 2322 ft 182 kts 247°
2026-04-15 08:31 11.65350 104.95244 2193 ft 167 kts 223°
2026-04-15 08:31 11.64522 104.94435 2154 ft 162 kts 221°
2026-04-15 08:31 11.63706 104.93654 2046 ft 158 kts 221°
2026-04-15 08:31 11.62911 104.92889 1947 ft 156 kts 221°
2026-04-15 08:32 11.62137 104.92132 1833 ft 155 kts 223°
2026-04-15 08:32 11.61356 104.91370 1668 ft 155 kts 223°
2026-04-15 08:32 11.60599 104.90587 1522 ft 154 kts 223°
2026-04-15 08:32 11.59843 104.89815 1279 ft 153 kts 224°
2026-04-15 08:33 11.59093 104.89038 1090 ft 154 kts 223°
2026-04-15 08:33 11.58350 104.88274 895 ft 153 kts 224°
2026-04-15 08:33 11.57599 104.87495 671 ft 155 kts 225°
2026-04-15 08:33 11.56858 104.86703 494 ft 153 kts 224°
2026-04-15 08:34 11.56112 104.85928 283 ft 152 kts 223°
2026-04-15 08:34 11.55369 104.85160 102 ft 151 kts 223°
2026-04-15 08:34 11.54694 104.84461 62 ft 111 kts 225°
2026-04-15 08:34 11.54305 104.84052 66 ft 55 kts 225°
2026-04-15 08:35 11.54124 104.83859 63 ft 17 kts 244°
2026-04-15 08:35 11.54171 104.83774 66 ft 8 kts 318°
2026-04-15 08:35 11.54231 104.83744 62 ft 11 kts
2026-04-15 08:35 11.54305 104.83799 62 ft 15 kts 46°
2026-04-15 08:36 11.54390 104.83887 67 ft 19 kts 45°
2026-04-15 08:36 11.54493 104.83994 63 ft 23 kts 46°
2026-04-15 08:36 11.54608 104.84115 63 ft 25 kts 46°
2026-04-15 08:36 11.54740 104.84253 64 ft 28 kts 45°
2026-04-15 08:37 11.54873 104.84390 61 ft 23 kts 45°
2026-04-15 08:37 11.54990 104.84511 61 ft 24 kts 46°
2026-04-15 08:37 11.55037 104.84561 61 ft 0 kts 46°
2026-04-15 08:37 11.55039 104.84563 61 ft 1 kts 46°
2026-04-15 08:38 11.55044 104.84567 60 ft 1 kts 40°
2026-04-15 08:38 11.55048 104.84569 62 ft 1 kts 20°
2026-04-15 08:38 11.55072 104.84569 64 ft 5 kts 340°
2026-04-15 08:38 11.55122 104.84538 61 ft 9 kts 330°
2026-04-15 08:39 11.55153 104.84520 59 ft 0 kts 332°
2026-04-15 08:39 11.55168 104.84512 61 ft 3 kts 332°
2026-04-15 08:39 11.55169 104.84511 61 ft 0 kts 332°